Regional Weather Roundup
Issued by NWS

Home | Current Version | Previous Version | Text Only | Print | Product List | Glossary Off
Versions: 1 2 3 4 5 6 7 8 9 10 11 12 13 14 15 16 17 18 19 20 21 22 23 24 25 26 27 28 29 30 31 32 33 34 35 36 37 38 39 40 41 42 43 44 45 46 47 48 49 50

000
ASUS43 KLMK 290902
RWRKY
KENTUCKY REGIONAL WEATHER ROUNDUP
NATIONAL WEATHER SERVICE LOUISVILLE KY
500 AM EDT WED MAR 29 2017

NOTE "FAIR" INDICATES FEW OR NO CLOUDS BELOW 12,000 FEET
WITH NO SIGNIFICANT WEATHER AND/OR OBSTRUCTIONS TO VISIBILITY.

KYZ001>023-026-027-061>063-070>075-291000-
WESTERN AND SOUTH CENTRAL KENTUCKY

CITY           SKY/WX    TMP DP  RH WIND       PRES   REMARKS
PADUCAH        CLEAR     48  46  93 NE5       30.02S FOG
HENDERSON      PTCLDY    54  46  76 NE8       30.06S
OWENSBORO        N/A    N/A N/A N/A MISG        N/A
HOPKINSVILLE   CLEAR     52  52 100 E5        30.02F
BOWLING GREEN  CLEAR     52  50  93 NE6       30.05F
GLASGOW        NOT AVBL
$$

KYZ024-025-028>034-038-045-046-053-291000-
NORTH CENTRAL KENTUCKY

CITY           SKY/WX    TMP DP  RH WIND       PRES   REMARKS
LOUISVILLE/SDF CLOUDY    53  47  79 NE8       30.10S
LOUISVILLE/LOU CLOUDY    52  47  83 NE3       30.11R
FORT KNOX      CLEAR     51  49  92 NE8       30.07S
$$

KYZ035>037-039>044-047>052-055>060-089>105-291000-
NORTHEAST KENTUCKY

CITY           SKY/WX    TMP DP  RH WIND       PRES   REMARKS
LEXINGTON      MOCLDY    51  46  83 NE10      30.10S
COVINGTON      CLOUDY    49  44  83 NE12      30.13R
FRANKFORT      CLOUDY    53  47  79 NE7       30.09R
$$

KYZ054-064>069-076>088-106>120-291000-
SOUTHEAST KENTUCKY

CITY           SKY/WX    TMP DP  RH WIND       PRES   REMARKS
JACKSON        CLOUDY    54  51  90 CALM      30.08S
LONDON         CLOUDY    56  51  84 NE5       30.05F
SOMERSET       NOT AVBL
MIDDLESBORO    CLEAR     48  48 100 CALM      30.06S
MONTICELLO     CLOUDY    55  53  93 N14       30.08F
$$




USA.gov is the U.S. government's official web portal to all federal, state and local government web resources and services.